SCP
0 0 0 0 0 0 0 0 0 0 0 0 0 0 0 0 0 0 0 0 0 0 0 0 0 0 0 0 0 0 0 0 0 0 0 -0 -0 0 0 0 0 0 0 0 0 0 0 0 0 -0 -0 -0 -0 0
0 0 0 0 0 0 0 0 0 0 0 0 0 0 0 0 0 0 0 0 0 0 0 0 0 0 0 0 0 0 0 0 0 0 0 0 -0 0 0 -0 0 0 0 0 0 0 0 0 0 -0 0 -0 0 -0
0 0 0 0 0 0 0 0 0 0 0 0 0 0 0 0 0 0 0 0 0 0 0 0 0 0 0 0 0 0 0 0 0 0 0 0 -0 0 0 0 0 0 0 0 0 0 -0 0 -0 -0 0 -0 0 0
0 0 0 0 0 0 0 0 0 0 0 0 0 0 0 0 0 0 0 0 0 0 0 0 0 0 0 0 0 -0 0 0 0 0 0 0 0 0 0 0 0 0 0 0 0 0 -0 -0 -0 -0 -0 -0 0 0
0 0 0 0 0 0 0 0 0 0 0 0 0 0 0 0 0 0 0 0 0 0 0 0 0 0 0 0 0 -0 -0 0 0 0 0 0 0 0 0 -0 0 0 0 0 0 -0 -0 0 -0 -0 -0 0 0 0
0 0 0 0 0 0 0 0 0 0 0 0 0 0 0 0 0 0 0 0 0 0 0 0 0 0 0 0 0 0 0 0 0 0 0 0 0 0 0 -0 -0 0 0 0 0 0 0 0 -0 -0 -0 0 0 0
0 0 0 0 0 0 0 0 0 0 0 0 0 0 0 0 0 0 0 0 0 0 0 0 0 0 0 0 0 0 0 0 0 0 0 0 0 0 0 0 0 0 -0 -0 0 0 0 0 -0 -0 -0 0 0 0
0 0 0 0 0 0 0 0 0 0 0 0 0 0 0 0 0 0 0 0 0 0 0 0 0 0 0 0 0 0 0 0 0 0 0 0 0 0 0 0 0 0 -0 -0 -0 -0 -0 -0 -0 -0 0 -0 0 0
0 0 0 0 0 0 0 0 0 0 0 0 0 0 0 0 0 0 0 0 0 0 0 0 0 0 0 0 0 0 0 0 0 0 0 0 0 0 0 0 0 0 0 -0 -0 0 -0 0 0 0 -0 -0 -0 0
0 0 0 0 0 0 0 0 0 0 0 0 0 0 0 0 0 0 0 0 0 0 0 0 0 0 0 0 0 0 0 0 0 0 0 0 0 -0 -0 0 0 0 0 -0 -0 -0 -0 -0 -0 -0 0 0 0 0
0 0 0 0 0 0 0 0 0 0 0 0 0 0 0 0 0 0 0 0 0 0 0 0 0 0 0 0 0 0 0 0 0 0 0 0 0 -0 0 0 0 0 0 0 -0 0 0 0 -0 -0 0 0 0 0
0 0 0 0 0 0 0 0 0 0 0 0 0 0 0 0 0 0 0 0 0 0 0 0 0 0 0 0 0 0 0 0 0 0 -0 -0 0 0 0 0 0 0 0 0 -0 0 0 0 0 0 0 0 0 -0
0 0 0 0 0 0 0 0 0 0 0 0 0 0 0 0 0 0 0 0 0 0 0 0 0 0 0 0 0 0 0 0 0 -0 -0 -0 0 0 0 0 0 0 0 0 0 0 0 -0 0 -0 0 0 0 0
0 0 0 0 0 0 0 0 0 0 0 0 0 0 0 0 0 0 0 0 0 0 0 0 0 0 0 0 0 0 0 0 -0 -0 -0 -0 0 0 0 0 -0 -0 -0 -0 -0 0 0 0 0 0 -0 0 0 0
0 0 0 0 0 0 0 0 0 0 0 0 0 0 0 0 0 0 0 0 0 0 0 0 0 0 0 0 0 0 0 0 0 0 -0 -0 0 0 0 0 0 -0 0 -0 -0 0 0 0 0 -0 0 0 0 0
0 0 0 0 0 0 0 0 0 0 0 0 0 0 0 0 0 0 0 0 0 0 0 0 0 0 0 0 0 0 0 0 0 0 -0 0 0 0 0 0 0 0 -0 -0 -0 -0 -0 0 0 -0 -0 0 0 0
0 0 0 0 0 0 0 0 0 0 0 0 0 0 0 0 0 0 0 0 0 0 0 0 0 0 0 0 0 0 0 0 0 0 0 0 0 0 0 0 0 -0 -0 -0 -0 -0 -0 -0 0 0 -0 0 0 0
0 0 0 0 0 0 0 0 0 0 0 0 0 0 0 0 0 0 0 0 0 0 0 0 0 0 0 0 0 0 0 0 0 0 -0 0 0 0 0 0 0 -0 -0 -0 -0 -0 -0 -0 -0 0 0 0 0 0
0 0 0 0 0 0 0 0 0 0 0 0 0 0 0 0 0 0 0 0 0 0 0 0 0 0 0 0 0 0 0 0 0 0 0 0 0 0 0 0 0 -0 -0 -0 -0 -0 -0 -0 -0 0 -0 0 -0 -0
-0 -0 0 0 0 0 0 0 0 0 0 0 0 0 0 0 0 0 0 0 0 0 0 0 0 0 0 -0 0 0 0 0 0 0 0 0 0 0 0 0 0 0 -0 -0 -0 -0 -0 -0 -0 -0 -0 -0 -0 -0
0 0 0 0 0 0 0 0 0 0 0 0 0 0 0 0 0 0 0 0 0 0 0 0 0 0 0 0 0 0 0 -0 0 0 0 0 0 0 0 0 0 0 0 -0 -0 -0 -0 -0 -0 -0 -0 -0 -0 0
0 0 0 0 0 0 0 0 0 0 0 0 0 0 0 -0 0 0 0 0 0 0 0 0 0 0 0 0 0 0 0 0 0 0 0 0 0 0 0 0 0 -0 0 -0 -0 -0 -0 -0 -0 -0 -0 -0 -0 -0
0 0 0 0 0 0 0 0 0 0 0 0 0 0 0 0 -0 -0 0 0 -0 -0 0 0 0 0 0 0 0 0 0 0 0 0 0 0 0 0 0 0 0 0 -0 -0 -0 -0 -0 -0 -0 -0 -0 -0 -0 -0
0 0 0 0 0 0 0 0 0 0 0 0 0 0 0 0 0 -0 -0 0 0 0 0 0 0 0 0 0 0 0 0 0 0 0 0 0 0 0 0 0 0 0 0 -0 -0 -0 -0 -0 -0 -0 -0 -0 -0 -0
0 0 0 0 0 0 0 0 0 0 0 0 0 0 0 0 0 0 0 0 -0 0 0 0 0 0 0 0 0 0 0 0 0 0 0 0 0 0 0 0 0 0 0 0 -0 -0 -0 -0 -0 -0 -0 -0 -0 -0
0 0 0 0 0 0 0 0 0 0 -0 -0 0 0 0 0 0 0 -0 -0 -0 -0 -0 0 0 0 0 0 0 0 0 0 0 0 0 0 0 0 0 0 0 0 0 0 0 -0 -0 -0 -0 -0 -0 -0 -0 -0
0 0 0 0 0 0 0 0 0 0 -0 -0 0 0 0 0 0 -0 -0 -0 -0 -0 -0 -0 0 0 0 0 0 0 0 0 0 0 0 0 0 0 0 0 0 0 0 0 0 -0 -0 -0 -0 -0 -0 -0 -0 -0
0 0 0 0 0 0 0 0 0 0 0 0 0 0 0 0 0 0 0 -0 -0 -0 0 0 0 0 0 0 0 0 0 0 0 0 0 0 0 0 0 0 0 0 0 0 0 0 0 0 0 0 -0 -0 -0 -0
0 0 0 -0 0 0 0 0 0 0 0 0 0 0 0 0 0 -0 -0 0 -0 -0 -0 0 -0 -0 -0 -0 0 0 0 0 0 0 0 0 0 0 0 0 0 0 0 0 0 0 -0 0 0 0 0 0 0 0
0 0 0 0 0 0 0 0 0 0 0 0 0 0 0 0 0 0 0 0 0 0 0 0 0 -0 -0 -0 -0 -0 0 0 0 0 0 0 0 0 0 0 0 0 0 0 0 0 0 0 0 0 0 0 0 0
0 0 0 0 0 0 0 0 0 0 0 0 0 0 0 0 0 0 0 0 0 0 0 0 0 0 -0 -0 -0 -0 -0 0 0 0 0 0 0 0 0 0 0 0 0 0 0 0 0 0 0 0 0 0 0 0
0 0 0 0 0 0 0 0 0 0 0 0 0 0 0 0 0 0 0 0 0 0 0 0 0 0 0 0 0 0 -0 -0 0 0 0 0 0 0 0 0 0 0 0 0 0 0 0 0 0 0 0 0 0 0
0 0 0 0 0 0 0 0 0 0 0 0 0 0 0 0 0 0 0 0 0 0 0 0 0 0 0 0 -0 0 0 0 -0 0 0 0 0 0 0 0 0 0 0 0 0 0 0 0 0 0 0 0 0 0
Wind_Speed_500mb
48 47 46 50 53 54 53 51 50 48 46 42 41 38 32 24 9 15 27 21 27 22 45 45 40 27 19 16 6 18 19 1 7 10 6 6 5 7 8 11 16 8 10 4 6 6 5 15 17 7 13 39 40 21
45 47 49 50 52 50 48 46 46 47 47 41 40 36 31 24 13 20 28 25 26 41 48 67 79 68 73 63 35 12 11 15 6 4 1 6 6 5 8 7 9 6 6 7 3 5 19 40 23 41 48 39 27 28
45 47 49 48 48 50 50 48 45 44 47 44 42 38 34 28 20 22 34 31 34 33 46 32 14 3 9 6 31 19 16 12 7 8 3 4 8 4 5 5 7 7 7 6 17 5 23 19 29 41 40 35 28 19
46 48 47 47 50 51 51 48 47 44 45 45 42 39 36 32 32 26 34 29 26 20 10 17 16 51 35 34 32 39 23 10 12 9 7 5 7 6 5 10 8 8 15 18 15 16 35 20 40 47 45 31 24 18
46 49 48 50 52 52 51 49 49 47 45 46 46 41 38 36 34 31 32 26 28 28 9 25 56 5 16 17 23 40 51 41 12 5 6 6 7 4 8 5 10 7 7 10 12 35 23 38 49 49 34 35 19 21
47 49 50 52 52 52 52 50 49 48 47 47 46 43 44 36 24 15 8 3 7 26 8 7 15 14 19 21 14 37 44 39 23 8 8 10 9 7 6 6 12 14 14 13 15 34 36 41 46 47 39 30 22 30
48 49 50 51 51 51 51 52 50 48 48 47 45 48 38 28 23 16 8 5 4 10 7 9 10 9 18 6 5 12 25 22 19 9 10 8 7 11 5 9 9 10 17 17 20 28 33 37 49 48 38 33 27 26
48 50 49 49 49 49 49 51 53 51 46 45 47 40 24 15 16 19 9 18 27 10 9 5 8 10 5 4 5 14 13 17 13 8 6 7 5 7 8 18 20 21 19 17 23 28 31 36 37 37 44 38 32 36
47 49 48 48 48 47 47 49 51 49 47 46 39 19 6 7 4 4 9 15 16 21 7 7 4 7 6 6 4 6 13 7 11 7 7 7 5 10 13 14 9 8 11 18 27 30 38 39 34 37 38 36 30 31
49 48 46 46 46 45 44 46 47 49 48 39 20 2 6 5 13 18 6 10 19 14 14 9 9 10 9 4 4 3 5 2 4 6 5 7 7 30 25 14 15 4 13 19 23 34 39 38 42 39 34 31 23 26
47 44 43 43 43 43 43 41 43 49 46 33 18 8 13 16 11 7 7 8 10 6 11 11 16 13 9 9 6 5 1 2 4 1 4 4 6 6 3 13 12 3 10 15 19 25 22 26 33 31 34 30 22 23
41 39 39 40 40 41 40 40 36 42 39 40 30 30 16 4 6 6 6 7 9 8 10 7 6 14 8 13 7 5 3 4 6 1 4 5 6 4 7 15 12 5 9 15 22 29 27 24 27 33 31 30 25 24
38 37 36 37 38 39 35 32 35 40 42 19 4 7 7 6 9 11 11 8 6 10 10 6 4 8 8 11 10 4 6 7 1 3 5 7 6 5 10 14 11 8 6 13 21 28 29 24 23 31 35 29 29 33
37 35 32 33 32 32 31 36 37 37 22 6 5 10 10 9 10 10 7 3 2 9 16 18 8 12 15 8 5 7 5 3 3 5 8 5 11 12 14 18 15 7 6 10 20 27 29 28 25 23 26 27 30 35
34 33 31 26 23 34 39 38 35 31 10 7 7 10 11 14 12 9 10 12 15 17 11 12 12 8 4 5 3 2 6 6 7 7 5 7 11 23 19 22 17 9 1 7 13 21 25 27 28 25 23 21 21 16
31 31 19 22 31 35 38 41 37 14 8 9 13 11 14 13 12 7 9 16 15 14 21 8 7 6 7 5 8 11 6 8 4 6 7 4 14 28 25 21 20 14 7 4 13 19 20 26 31 26 24 27 27 24
26 18 25 29 33 35 35 34 9 7 9 9 11 15 22 26 24 21 17 25 25 13 5 7 8 15 2 2 5 4 6 4 9 5 7 5 11 16 25 28 21 18 15 9 8 14 17 21 21 23 28 28 29 31
22 23 26 29 35 35 22 7 4 6 10 13 14 16 13 22 31 31 26 31 15 8 9 6 12 6 6 5 6 5 9 15 28 20 28 16 9 13 21 27 25 23 21 16 13 10 15 15 19 26 26 23 25 31
22 24 23 19 19 19 9 5 5 8 12 19 24 28 27 30 34 38 39 43 36 22 12 9 10 7 8 4 11 21 21 14 32 37 31 19 11 19 22 27 29 25 27 21 14 12 14 16 20 22 23 24 27 29
18 15 11 15 19 8 6 6 6 11 11 17 31 29 28 38 44 42 42 37 19 8 11 6 7 10 13 16 22 36 37 37 36 39 43 37 23 24 29 32 34 34 33 28 21 13 11 15 19 20 21 24 28 34
9 14 14 18 5 8 5 7 8 10 17 14 26 34 30 24 28 21 26 19 4 4 3 10 20 25 31 33 30 30 34 31 36 35 43 39 28 19 23 34 37 40 40 38 34 27 17 15 18 19 20 24 27 31
9 16 14 11 4 2 7 9 11 20 11 21 25 23 20 18 20 12 25 3 8 13 16 22 25 32 37 37 41 33 35 38 36 37 36 36 31 27 27 43 46 43 47 43 39 36 30 24 24 25 23 23 23 28
8 8 6 6 3 4 8 10 7 7 7 14 24 13 6 11 13 29 5 11 11 27 37 36 35 30 31 33 32 30 29 32 35 29 27 27 30 31 30 46 53 46 44 49 44 40 36 31 27 26 26 25 25 30
4 4 2 3 3 6 9 6 7 8 8 10 10 12 10 11 20 4 6 13 40 50 58 53 49 48 37 40 45 47 45 36 32 25 23 25 28 31 35 39 52 53 45 47 50 49 45 41 35 30 26 25 25 27
5 2 2 4 4 3 6 6 5 3 6 23 7 7 5 11 5 9 6 24 48 55 60 56 50 47 46 48 53 53 48 39 37 36 23 19 22 20 28 34 41 55 48 51 56 55 55 49 43 37 29 24 23 24
4 6 7 5 2 4 5 7 5 8 14 5 5 12 9 5 7 8 14 35 45 57 60 58 55 51 47 48 58 68 61 40 31 31 21 12 18 15 27 38 51 56 50 49 57 59 58 55 49 43 34 27 23 24
3 4 7 8 5 5 10 11 16 7 6 5 8 9 7 7 8 9 28 42 49 52 48 50 48 45 45 51 59 68 48 25 22 22 14 11 17 22 21 35 45 45 53 54 58 55 56 57 53 47 39 31 27 24
7 4 6 5 6 9 6 6 5 4 3 4 13 5 5 6 8 18 33 43 40 42 49 46 46 44 45 47 59 70 66 23 21 16 7 7 6 20 18 17 15 16 38 51 55 52 51 50 53 49 41 34 33 31
6 5 5 14 7 6 8 7 6 5 4 3 5 4 7 7 18 22 30 32 38 43 44 49 58 54 53 49 55 68 71 66 44 46 41 29 29 25 26 27 20 21 31 47 42 37 43 43 49 46 39 35 35 36
6 10 4 5 6 6 8 14 8 9 11 10 6 15 20 18 33 29 27 33 42 45 44 43 48 56 62 67 66 66 67 68 61 51 43 43 36 27 23 19 10 8 22 42 54 51 49 51 54 49 44 43 43 41
4 7 4 7 8 8 11 12 11 8 2 1 3 15 19 12 13 42 40 38 37 41 44 44 44 57 61 64 66 68 71 67 64 58 52 38 39 36 26 25 18 8 10 30 47 44 49 55 56 53 50 47 43 39
11 12 5 5 8 12 17 9 10 6 4 4 5 5 10 9 7 20 46 40 37 39 39 38 42 48 49 52 53 53 51 57 61 60 57 55 47 37 32 27 18 9 6 16 31 38 43 57 62 59 56 51 48 45
5 8 12 7 6 5 2 6 8 8 7 6 6 11 11 8 8 17 25 34 34 31 30 34 37 40 41 43 46 49 50 51 50 51 53 58 57 48 38 34 30 23 9 6 18 30 38 52 64 66 62 58 57 49
Wind_Direction_500mb
326 328 330 331 329 330 328 329 329 328 326 326 330 329 328 328 271 280 302 287 266 263 276 271 270 253 246 233 246 306 322 359 305 6 355 345 311 334 297 307 318 316 320 340 283 290 345 315 336 327 275 292 301 303
331 331 330 333 335 336 334 334 334 332 326 324 328 327 323 322 273 270 290 296 291 260 271 287 289 279 263 259 251 257 283 305 261 300 245 295 287 293 307 312 312 307 347 323 259 294 291 297 279 277 285 283 301 300
329 329 329 330 333 333 333 334 334 333 327 324 326 327 326 318 303 269 276 279 290 282 294 292 307 325 338 247 222 219 239 232 224 232 292 286 277 275 285 280 292 283 278 282 318 211 308 342 334 333 325 309 300 289
324 327 327 327 330 330 330 332 332 332 330 326 323 323 322 317 311 286 271 269 260 276 278 287 290 306 282 258 259 238 221 219 239 211 225 246 252 212 268 282 280 273 317 323 298 309 326 331 343 328 324 321 306 308
319 322 323 324 326 326 327 329 330 330 329 325 322 318 314 311 306 298 289 282 256 236 276 290 309 314 314 298 248 223 227 228 261 229 219 245 251 243 233 283 254 223 306 339 320 318 321 319 328 328 323 326 337 314
315 318 320 323 325 325 326 327 328 327 326 325 321 315 313 305 293 306 306 121 210 206 268 292 297 301 310 328 236 213 222 228 231 228 235 251 254 222 279 236 270 258 270 272 297 315 316 319 331 332 328 339 335 329
313 316 319 322 323 325 326 327 327 326 325 321 317 315 312 293 256 223 224 233 249 178 244 273 279 272 305 328 109 173 204 219 222 235 225 243 257 205 250 267 269 284 296 315 317 322 325 333 333 333 342 351 332 335
312 315 319 321 323 324 326 325 325 328 330 324 321 316 318 295 246 263 239 262 236 223 245 267 276 295 289 273 220 199 196 213 228 247 233 229 235 226 258 267 276 288 298 331 341 339 323 333 343 353 1 0 1 3
312 315 318 320 321 325 325 324 326 331 333 331 325 313 314 322 223 242 252 287 256 210 263 239 255 294 301 260 250 205 223 215 204 223 224 196 189 232 233 271 299 296 323 334 341 340 343 350 351 355 358 7 357 7
313 313 316 319 321 323 324 327 331 331 336 338 332 285 232 239 257 287 264 203 189 214 229 245 231 257 273 300 256 278 228 292 242 220 200 220 248 254 262 259 290 338 350 352 353 348 353 355 357 357 360 4 7 3
307 311 316 318 320 322 324 326 329 332 343 353 337 287 274 272 274 240 232 219 190 239 224 233 224 244 255 232 253 220 160 291 264 114 272 254 264 233 195 187 138 38 18 16 8 357 1 356 3 6 8 13 23 42
306 311 316 319 320 321 325 325 329 334 338 321 301 296 308 288 228 257 222 206 199 239 202 206 232 216 244 218 243 189 217 196 250 3 262 261 255 215 169 145 131 108 21 18 11 5 10 14 14 20 20 25 40 45
304 312 318 318 319 320 321 328 332 328 327 318 274 260 241 223 229 213 210 192 210 194 191 190 237 233 215 215 241 193 219 228 36 219 243 242 272 202 170 171 172 127 83 29 17 8 9 16 26 24 32 35 53 59
305 314 319 317 315 314 323 324 325 330 333 291 276 266 222 212 229 223 232 273 38 340 320 305 255 209 194 200 198 217 191 168 232 232 239 255 237 183 166 159 167 149 111 49 26 13 16 23 26 27 21 36 46 60
305 315 316 310 314 316 320 319 318 318 267 259 218 243 237 251 271 276 275 285 283 301 318 323 276 231 123 274 258 205 189 235 224 232 236 259 196 185 179 172 173 170 109 52 40 30 25 29 30 35 36 29 46 57
311 324 326 323 314 314 315 313 316 302 244 243 239 269 282 296 294 310 301 299 337 325 313 249 259 249 221 215 196 211 188 227 247 231 278 239 192 190 179 188 195 175 169 66 33 36 37 29 35 41 42 45 45 51
315 329 321 317 318 321 321 313 290 226 248 246 258 275 276 283 278 291 305 306 315 304 248 231 218 220 136 215 235 182 229 244 250 309 329 300 225 212 211 211 196 186 180 152 74 47 49 48 41 43 49 51 53 54
313 323 327 327 329 338 335 328 296 271 265 269 279 300 302 284 290 295 291 301 297 276 280 288 322 260 226 229 211 236 258 294 324 326 322 316 250 221 204 199 195 205 190 163 132 87 71 78 69 60 52 60 61 64
324 332 335 335 346 345 327 329 314 280 272 293 287 299 300 295 295 302 300 302 292 277 265 264 248 230 235 266 345 338 335 326 317 322 322 300 279 230 207 205 206 198 194 183 158 125 109 103 92 83 72 69 72 71
334 334 339 326 312 330 307 289 279 273 278 298 302 307 308 295 293 291 291 296 257 221 219 232 265 10 347 324 318 310 312 316 310 308 301 301 294 242 218 201 199 199 191 177 178 162 128 114 107 103 100 97 91 85
21 7 349 336 331 200 272 299 274 266 292 287 289 308 295 304 299 296 303 303 169 181 290 20 345 327 320 317 321 315 313 317 298 280 280 291 293 270 219 197 192 196 193 192 181 170 158 139 126 117 116 111 107 104
1 339 353 19 42 257 265 249 260 288 282 277 304 316 297 308 321 344 328 269 73 22 360 339 333 327 327 327 325 324 320 319 310 280 272 277 265 247 224 194 190 194 195 198 193 178 168 158 146 141 141 130 123 117
339 8 20 28 312 258 275 295 273 271 282 310 315 299 330 308 314 329 13 40 39 2 358 359 359 355 342 338 329 323 324 328 329 311 287 280 268 254 241 207 197 197 191 198 193 187 174 163 155 153 149 143 139 137
349 99 36 357 304 289 312 268 257 278 298 318 312 304 316 310 314 291 56 36 356 4 12 16 16 2 356 354 351 344 337 326 311 311 319 293 264 248 227 220 203 202 206 199 189 187 179 169 162 159 157 155 150 146
146 120 143 277 215 283 274 273 267 313 293 328 288 288 336 330 297 32 44 2 354 355 360 5 6 359 352 347 345 341 340 327 316 308 326 301 259 242 218 210 204 201 208 199 189 188 182 176 171 166 163 162 163 159
109 186 173 192 195 225 300 298 299 318 314 288 289 313 338 303 6 40 2 345 345 349 357 359 356 348 346 352 351 350 340 326 306 295 310 313 238 232 223 202 193 195 205 208 200 193 190 185 180 176 171 167 168 171
155 228 217 221 242 289 279 273 276 273 272 299 323 331 337 21 32 13 343 349 345 360 8 7 2 359 355 2 5 3 353 328 297 292 304 311 228 204 240 224 212 205 198 202 203 204 198 191 187 184 181 178 178 178
214 215 215 172 236 239 247 256 262 257 266 315 318 346 24 36 4 334 332 353 4 8 11 7 12 12 14 19 19 16 18 51 90 87 96 313 149 196 209 193 202 236 218 205 201 203 203 199 193 189 188 188 184 179
221 220 226 275 259 228 225 235 246 242 274 322 325 20 92 62 12 358 9 18 16 16 14 14 22 27 29 35 35 33 26 32 58 63 61 48 90 112 142 170 211 200 201 206 197 197 199 196 193 189 189 187 182 177
223 190 211 251 237 226 224 212 237 247 248 281 259 121 113 83 39 40 40 29 25 23 23 23 24 29 30 30 34 41 39 36 34 35 34 37 38 74 111 144 145 170 193 193 182 187 191 189 185 185 185 181 179 177
178 166 225 237 264 249 251 257 256 245 175 174 84 154 153 150 51 33 33 28 23 27 34 30 27 31 32 30 28 31 38 40 39 37 33 33 45 49 51 65 78 91 151 183 185 186 187 184 185 184 183 179 175 175
180 200 215 249 277 281 278 185 158 146 118 98 46 120 125 109 74 19 16 21 26 30 28 24 24 26 30 32 31 34 37 38 42 41 37 37 38 34 34 45 67 105 138 192 198 190 196 195 191 188 182 177 171 169
226 233 231 269 281 286 240 203 160 135 119 111 90 70 78 81 89 17 19 22 30 25 21 23 24 24 27 29 30 33 37 40 42 42 42 43 47 50 52 51 51 52 57 205 224 214 216 206 188 178 172 167 164 163
Wind_Speed_850mb
48 47 46 50 53 54 53 51 50 48 46 42 41 38 32 24 9 15 27 21 27 22 45 45 40 27 19 16 6 18 19 1 7 10 6 6 5 7 8 11 16 8 10 4 6 6 5 15 17 7 13 39 40 21
45 47 49 50 52 50 48 46 46 47 47 41 40 36 31 24 13 20 28 25 26 41 48 67 79 68 73 63 35 12 11 15 6 4 1 6 6 5 8 7 9 6 6 7 3 5 19 40 23 41 48 39 27 28
45 47 49 48 48 50 50 48 45 44 47 44 42 38 34 28 20 22 34 31 34 33 46 32 14 3 9 6 31 19 16 12 7 8 3 4 8 4 5 5 7 7 7 6 17 5 23 19 29 41 40 35 28 19
46 48 47 47 50 51 51 48 47 44 45 45 42 39 36 32 32 26 34 29 26 20 10 17 16 51 35 34 32 39 23 10 12 9 7 5 7 6 5 10 8 8 15 18 15 16 35 20 40 47 45 31 24 18
46 49 48 50 52 52 51 49 49 47 45 46 46 41 38 36 34 31 32 26 28 28 9 25 56 5 16 17 23 40 51 41 12 5 6 6 7 4 8 5 10 7 7 10 12 35 23 38 49 49 34 35 19 21
47 49 50 52 52 52 52 50 49 48 47 47 46 43 44 36 24 15 8 3 7 26 8 7 15 14 19 21 14 37 44 39 23 8 8 10 9 7 6 6 12 14 14 13 15 34 36 41 46 47 39 30 22 30
48 49 50 51 51 51 51 52 50 48 48 47 45 48 38 28 23 16 8 5 4 10 7 9 10 9 18 6 5 12 25 22 19 9 10 8 7 11 5 9 9 10 17 17 20 28 33 37 49 48 38 33 27 26
48 50 49 49 49 49 49 51 53 51 46 45 47 40 24 15 16 19 9 18 27 10 9 5 8 10 5 4 5 14 13 17 13 8 6 7 5 7 8 18 20 21 19 17 23 28 31 36 37 37 44 38 32 36
47 49 48 48 48 47 47 49 51 49 47 46 39 19 6 7 4 4 9 15 16 21 7 7 4 7 6 6 4 6 13 7 11 7 7 7 5 10 13 14 9 8 11 18 27 30 38 39 34 37 38 36 30 31
49 48 46 46 46 45 44 46 47 49 48 39 20 2 6 5 13 18 6 10 19 14 14 9 9 10 9 4 4 3 5 2 4 6 5 7 7 30 25 14 15 4 13 19 23 34 39 38 42 39 34 31 23 26
47 44 43 43 43 43 43 41 43 49 46 33 18 8 13 16 11 7 7 8 10 6 11 11 16 13 9 9 6 5 1 2 4 1 4 4 6 6 3 13 12 3 10 15 19 25 22 26 33 31 34 30 22 23
41 39 39 40 40 41 40 40 36 42 39 40 30 30 16 4 6 6 6 7 9 8 10 7 6 14 8 13 7 5 3 4 6 1 4 5 6 4 7 15 12 5 9 15 22 29 27 24 27 33 31 30 25 24
38 37 36 37 38 39 35 32 35 40 42 19 4 7 7 6 9 11 11 8 6 10 10 6 4 8 8 11 10 4 6 7 1 3 5 7 6 5 10 14 11 8 6 13 21 28 29 24 23 31 35 29 29 33
37 35 32 33 32 32 31 36 37 37 22 6 5 10 10 9 10 10 7 3 2 9 16 18 8 12 15 8 5 7 5 3 3 5 8 5 11 12 14 18 15 7 6 10 20 27 29 28 25 23 26 27 30 35
34 33 31 26 23 34 39 38 35 31 10 7 7 10 11 14 12 9 10 12 15 17 11 12 12 8 4 5 3 2 6 6 7 7 5 7 11 23 19 22 17 9 1 7 13 21 25 27 28 25 23 21 21 16
31 31 19 22 31 35 38 41 37 14 8 9 13 11 14 13 12 7 9 16 15 14 21 8 7 6 7 5 8 11 6 8 4 6 7 4 14 28 25 21 20 14 7 4 13 19 20 26 31 26 24 27 27 24
26 18 25 29 33 35 35 34 9 7 9 9 11 15 22 26 24 21 17 25 25 13 5 7 8 15 2 2 5 4 6 4 9 5 7 5 11 16 25 28 21 18 15 9 8 14 17 21 21 23 28 28 29 31
22 23 26 29 35 35 22 7 4 6 10 13 14 16 13 22 31 31 26 31 15 8 9 6 12 6 6 5 6 5 9 15 28 20 28 16 9 13 21 27 25 23 21 16 13 10 15 15 19 26 26 23 25 31
22 24 23 19 19 19 9 5 5 8 12 19 24 28 27 30 34 38 39 43 36 22 12 9 10 7 8 4 11 21 21 14 32 37 31 19 11 19 22 27 29 25 27 21 14 12 14 16 20 22 23 24 27 29
18 15 11 15 19 8 6 6 6 11 11 17 31 29 28 38 44 42 42 37 19 8 11 6 7 10 13 16 22 36 37 37 36 39 43 37 23 24 29 32 34 34 33 28 21 13 11 15 19 20 21 24 28 34
9 14 14 18 5 8 5 7 8 10 17 14 26 34 30 24 28 21 26 19 4 4 3 10 20 25 31 33 30 30 34 31 36 35 43 39 28 19 23 34 37 40 40 38 34 27 17 15 18 19 20 24 27 31
9 16 14 11 4 2 7 9 11 20 11 21 25 23 20 18 20 12 25 3 8 13 16 22 25 32 37 37 41 33 35 38 36 37 36 36 31 27 27 43 46 43 47 43 39 36 30 24 24 25 23 23 23 28
8 8 6 6 3 4 8 10 7 7 7 14 24 13 6 11 13 29 5 11 11 27 37 36 35 30 31 33 32 30 29 32 35 29 27 27 30 31 30 46 53 46 44 49 44 40 36 31 27 26 26 25 25 30
4 4 2 3 3 6 9 6 7 8 8 10 10 12 10 11 20 4 6 13 40 50 58 53 49 48 37 40 45 47 45 36 32 25 23 25 28 31 35 39 52 53 45 47 50 49 45 41 35 30 26 25 25 27
5 2 2 4 4 3 6 6 5 3 6 23 7 7 5 11 5 9 6 24 48 55 60 56 50 47 46 48 53 53 48 39 37 36 23 19 22 20 28 34 41 55 48 51 56 55 55 49 43 37 29 24 23 24
4 6 7 5 2 4 5 7 5 8 14 5 5 12 9 5 7 8 14 35 45 57 60 58 55 51 47 48 58 68 61 40 31 31 21 12 18 15 27 38 51 56 50 49 57 59 58 55 49 43 34 27 23 24
3 4 7 8 5 5 10 11 16 7 6 5 8 9 7 7 8 9 28 42 49 52 48 50 48 45 45 51 59 68 48 25 22 22 14 11 17 22 21 35 45 45 53 54 58 55 56 57 53 47 39 31 27 24
7 4 6 5 6 9 6 6 5 4 3 4 13 5 5 6 8 18 33 43 40 42 49 46 46 44 45 47 59 70 66 23 21 16 7 7 6 20 18 17 15 16 38 51 55 52 51 50 53 49 41 34 33 31
6 5 5 14 7 6 8 7 6 5 4 3 5 4 7 7 18 22 30 32 38 43 44 49 58 54 53 49 55 68 71 66 44 46 41 29 29 25 26 27 20 21 31 47 42 37 43 43 49 46 39 35 35 36
6 10 4 5 6 6 8 14 8 9 11 10 6 15 20 18 33 29 27 33 42 45 44 43 48 56 62 67 66 66 67 68 61 51 43 43 36 27 23 19 10 8 22 42 54 51 49 51 54 49 44 43 43 41
4 7 4 7 8 8 11 12 11 8 2 1 3 15 19 12 13 42 40 38 37 41 44 44 44 57 61 64 66 68 71 67 64 58 52 38 39 36 26 25 18 8 10 30 47 44 49 55 56 53 50 47 43 39
11 12 5 5 8 12 17 9 10 6 4 4 5 5 10 9 7 20 46 40 37 39 39 38 42 48 49 52 53 53 51 57 61 60 57 55 47 37 32 27 18 9 6 16 31 38 43 57 62 59 56 51 48 45
5 8 12 7 6 5 2 6 8 8 7 6 6 11 11 8 8 17 25 34 34 31 30 34 37 40 41 43 46 49 50 51 50 51 53 58 57 48 38 34 30 23 9 6 18 30 38 52 64 66 62 58 57 49
Wind_Direction_850mb
326 328 330 331 329 330 328 329 329 328 326 326 330 329 328 328 271 280 302 287 266 263 276 271 270 253 246 233 246 306 322 359 305 6 355 345 311 334 297 307 318 316 320 340 283 290 345 315 336 327 275 292 301 303
331 331 330 333 335 336 334 334 334 332 326 324 328 327 323 322 273 270 290 296 291 260 271 287 289 279 263 259 251 257 283 305 261 300 245 295 287 293 307 312 312 307 347 323 259 294 291 297 279 277 285 283 301 300
329 329 329 330 333 333 333 334 334 333 327 324 326 327 326 318 303 269 276 279 290 282 294 292 307 325 338 247 222 219 239 232 224 232 292 286 277 275 285 280 292 283 278 282 318 211 308 342 334 333 325 309 300 289
324 327 327 327 330 330 330 332 332 332 330 326 323 323 322 317 311 286 271 269 260 276 278 287 290 306 282 258 259 238 221 219 239 211 225 246 252 212 268 282 280 273 317 323 298 309 326 331 343 328 324 321 306 308
319 322 323 324 326 326 327 329 330 330 329 325 322 318 314 311 306 298 289 282 256 236 276 290 309 314 314 298 248 223 227 228 261 229 219 245 251 243 233 283 254 223 306 339 320 318 321 319 328 328 323 326 337 314
315 318 320 323 325 325 326 327 328 327 326 325 321 315 313 305 293 306 306 121 210 206 268 292 297 301 310 328 236 213 222 228 231 228 235 251 254 222 279 236 270 258 270 272 297 315 316 319 331 332 328 339 335 329
313 316 319 322 323 325 326 327 327 326 325 321 317 315 312 293 256 223 224 233 249 178 244 273 279 272 305 328 109 173 204 219 222 235 225 243 257 205 250 267 269 284 296 315 317 322 325 333 333 333 342 351 332 335
312 315 319 321 323 324 326 325 325 328 330 324 321 316 318 295 246 263 239 262 236 223 245 267 276 295 289 273 220 199 196 213 228 247 233 229 235 226 258 267 276 288 298 331 341 339 323 333 343 353 1 0 1 3
312 315 318 320 321 325 325 324 326 331 333 331 325 313 314 322 223 242 252 287 256 210 263 239 255 294 301 260 250 205 223 215 204 223 224 196 189 232 233 271 299 296 323 334 341 340 343 350 351 355 358 7 357 7
313 313 316 319 321 323 324 327 331 331 336 338 332 285 232 239 257 287 264 203 189 214 229 245 231 257 273 300 256 278 228 292 242 220 200 220 248 254 262 259 290 338 350 352 353 348 353 355 357 357 360 4 7 3
307 311 316 318 320 322 324 326 329 332 343 353 337 287 274 272 274 240 232 219 190 239 224 233 224 244 255 232 253 220 160 291 264 114 272 254 264 233 195 187 138 38 18 16 8 357 1 356 3 6 8 13 23 42
306 311 316 319 320 321 325 325 329 334 338 321 301 296 308 288 228 257 222 206 199 239 202 206 232 216 244 218 243 189 217 196 250 3 262 261 255 215 169 145 131 108 21 18 11 5 10 14 14 20 20 25 40 45
304 312 318 318 319 320 321 328 332 328 327 318 274 260 241 223 229 213 210 192 210 194 191 190 237 233 215 215 241 193 219 228 36 219 243 242 272 202 170 171 172 127 83 29 17 8 9 16 26 24 32 35 53 59
305 314 319 317 315 314 323 324 325 330 333 291 276 266 222 212 229 223 232 273 38 340 320 305 255 209 194 200 198 217 191 168 232 232 239 255 237 183 166 159 167 149 111 49 26 13 16 23 26 27 21 36 46 60
305 315 316 310 314 316 320 319 318 318 267 259 218 243 237 251 271 276 275 285 283 301 318 323 276 231 123 274 258 205 189 235 224 232 236 259 196 185 179 172 173 170 109 52 40 30 25 29 30 35 36 29 46 57
311 324 326 323 314 314 315 313 316 302 244 243 239 269 282 296 294 310 301 299 337 325 313 249 259 249 221 215 196 211 188 227 247 231 278 239 192 190 179 188 195 175 169 66 33 36 37 29 35 41 42 45 45 51
315 329 321 317 318 321 321 313 290 226 248 246 258 275 276 283 278 291 305 306 315 304 248 231 218 220 136 215 235 182 229 244 250 309 329 300 225 212 211 211 196 186 180 152 74 47 49 48 41 43 49 51 53 54
313 323 327 327 329 338 335 328 296 271 265 269 279 300 302 284 290 295 291 301 297 276 280 288 322 260 226 229 211 236 258 294 324 326 322 316 250 221 204 199 195 205 190 163 132 87 71 78 69 60 52 60 61 64
324 332 335 335 346 345 327 329 314 280 272 293 287 299 300 295 295 302 300 302 292 277 265 264 248 230 235 266 345 338 335 326 317 322 322 300 279 230 207 205 206 198 194 183 158 125 109 103 92 83 72 69 72 71
334 334 339 326 312 330 307 289 279 273 278 298 302 307 308 295 293 291 291 296 257 221 219 232 265 10 347 324 318 310 312 316 310 308 301 301 294 242 218 201 199 199 191 177 178 162 128 114 107 103 100 97 91 85
21 7 349 336 331 200 272 299 274 266 292 287 289 308 295 304 299 296 303 303 169 181 290 20 345 327 320 317 321 315 313 317 298 280 280 291 293 270 219 197 192 196 193 192 181 170 158 139 126 117 116 111 107 104
1 339 353 19 42 257 265 249 260 288 282 277 304 316 297 308 321 344 328 269 73 22 360 339 333 327 327 327 325 324 320 319 310 280 272 277 265 247 224 194 190 194 195 198 193 178 168 158 146 141 141 130 123 117
339 8 20 28 312 258 275 295 273 271 282 310 315 299 330 308 314 329 13 40 39 2 358 359 359 355 342 338 329 323 324 328 329 311 287 280 268 254 241 207 197 197 191 198 193 187 174 163 155 153 149 143 139 137
349 99 36 357 304 289 312 268 257 278 298 318 312 304 316 310 314 291 56 36 356 4 12 16 16 2 356 354 351 344 337 326 311 311 319 293 264 248 227 220 203 202 206 199 189 187 179 169 162 159 157 155 150 146
146 120 143 277 215 283 274 273 267 313 293 328 288 288 336 330 297 32 44 2 354 355 360 5 6 359 352 347 345 341 340 327 316 308 326 301 259 242 218 210 204 201 208 199 189 188 182 176 171 166 163 162 163 159
109 186 173 192 195 225 300 298 299 318 314 288 289 313 338 303 6 40 2 345 345 349 357 359 356 348 346 352 351 350 340 326 306 295 310 313 238 232 223 202 193 195 205 208 200 193 190 185 180 176 171 167 168 171
155 228 217 221 242 289 279 273 276 273 272 299 323 331 337 21 32 13 343 349 345 360 8 7 2 359 355 2 5 3 353 328 297 292 304 311 228 204 240 224 212 205 198 202 203 204 198 191 187 184 181 178 178 178
214 215 215 172 236 239 247 256 262 257 266 315 318 346 24 36 4 334 332 353 4 8 11 7 12 12 14 19 19 16 18 51 90 87 96 313 149 196 209 193 202 236 218 205 201 203 203 199 193 189 188 188 184 179
221 220 226 275 259 228 225 235 246 242 274 322 325 20 92 62 12 358 9 18 16 16 14 14 22 27 29 35 35 33 26 32 58 63 61 48 90 112 142 170 211 200 201 206 197 197 199 196 193 189 189 187 182 177
223 190 211 251 237 226 224 212 237 247 248 281 259 121 113 83 39 40 40 29 25 23 23 23 24 29 30 30 34 41 39 36 34 35 34 37 38 74 111 144 145 170 193 193 182 187 191 189 185 185 185 181 179 177
178 166 225 237 264 249 251 257 256 245 175 174 84 154 153 150 51 33 33 28 23 27 34 30 27 31 32 30 28 31 38 40 39 37 33 33 45 49 51 65 78 91 151 183 185 186 187 184 185 184 183 179 175 175
180 200 215 249 277 281 278 185 158 146 118 98 46 120 125 109 74 19 16 21 26 30 28 24 24 26 30 32 31 34 37 38 42 41 37 37 38 34 34 45 67 105 138 192 198 190 196 195 191 188 182 177 171 169
226 233 231 269 281 286 240 203 160 135 119 111 90 70 78 81 89 17 19 22 30 25 21 23 24 24 27 29 30 33 37 40 42 42 42 43 47 50 52 51 51 52 57 205 224 214 216 206 188 178 172 167 164 163